PulseSat

PulseSat

GSAT0216 (PRN E25)

Last updated on March 24, 2019, 3:12 a.m. UTC

1 43056U 17079B   19081.57303998 -.00000016  00000-0  00000-0 0  9993
2 43056  56.6298 294.2007 0001937 277.8163  82.1906  1.70473871  7937
UTC
Height (km)
Latitude
Longitude
Inclination
Orbital Period

Next 30 passes for location: Hong Kong

Rise time Rise Azimuth (degrees) Set time Set Azimuth (degrees) Duration Max altitude (degrees)

No matching passes for this satellites

PulseSat

PulseSat is the new satellites software and hardware trackering solution by Pulsely.
Satellite Two Line Element Set source: US Air Force Space Command

Download PulseSat for iOS
© 2017 Pulsely Limited